TimeCDT,TemperatureF,Dew PointF,Humidity,Sea Level PressureIn,VisibilityMPH,Wind Direction,Wind SpeedMPH,Gust SpeedMPH,PrecipitationIn,Events,Conditions,WindDirDegrees,DateUTC
12:15 AM,57.2,55.4,94,30.10,5.0,Calm,Calm,-,N/A,,Clear,0,2012-10-04 05:15:00
12:35 AM,57.2,55.4,94,30.10,5.0,Calm,Calm,-,N/A,,Clear,0,2012-10-04 05:35:00
12:55 AM,55.4,53.6,94,30.10,5.0,Calm,Calm,-,N/A,,Clear,0,2012-10-04 05:55:00
1:15 AM,55.4,53.6,94,30.10,5.0,Calm,Calm,-,N/A,,Clear,0,2012-10-04 06:15:00
1:35 AM,55.4,53.6,94,30.11,5.0,Calm,Calm,-,N/A,,Clear,0,2012-10-04 06:35:00
1:55 AM,55.4,53.6,94,30.11,5.0,Calm,Calm,-,N/A,,Clear,0,2012-10-04 06:55:00
2:15 AM,55.4,53.6,94,30.11,5.0,Calm,Calm,-,N/A,,Clear,0,2012-10-04 07:15:00
2:35 AM,55.4,53.6,94,30.11,4.0,Calm,Calm,-,N/A,,Clear,0,2012-10-04 07:35:00
2:55 AM,55.4,53.6,94,30.12,5.0,Calm,Calm,-,N/A,,Clear,0,2012-10-04 07:55:00
3:15 AM,55.4,53.6,94,30.12,4.0,Calm,Calm,-,N/A,,Clear,0,2012-10-04 08:15:00
3:35 AM,55.4,53.6,94,30.12,4.0,Calm,Calm,-,N/A,,Clear,0,2012-10-04 08:35:00
3:55 AM,55.4,53.6,94,30.12,5.0,Calm,Calm,-,N/A,,Clear,0,2012-10-04 08:55:00
4:15 AM,55.4,53.6,94,30.12,5.0,Calm,Calm,-,N/A,,Clear,0,2012-10-04 09:15:00
4:35 AM,55.4,53.6,94,30.13,5.0,Calm,Calm,-,N/A,,Clear,0,2012-10-04 09:35:00
4:55 AM,55.4,53.6,94,30.14,5.0,Calm,Calm,-,N/A,,Clear,0,2012-10-04 09:55:00
5:15 AM,55.4,53.6,94,30.14,5.0,Calm,Calm,-,N/A,,Clear,0,2012-10-04 10:15:00
5:35 AM,55.4,53.6,94,30.14,3.0,Calm,Calm,-,N/A,,Clear,0,2012-10-04 10:35:00
5:55 AM,55.4,53.6,94,30.15,4.0,Calm,Calm,-,N/A,,Clear,0,2012-10-04 10:55:00
6:15 AM,55.4,53.6,94,30.15,5.0,Calm,Calm,-,N/A,,Clear,0,2012-10-04 11:15:00
6:35 AM,55.4,53.6,94,30.16,3.0,Calm,Calm,-,N/A,,Clear,0,2012-10-04 11:35:00
6:55 AM,55.4,53.6,94,30.16,3.0,Calm,Calm,-,N/A,,Clear,0,2012-10-04 11:55:00
7:15 AM,55.4,53.6,94,30.16,2.5,Calm,Calm,-,N/A,,Clear,0,2012-10-04 12:15:00
7:35 AM,55.4,53.6,94,30.17,2.0,Calm,Calm,-,N/A,,Clear,0,2012-10-04 12:35:00
7:55 AM,55.4,53.6,94,30.17,3.0,Calm,Calm,-,N/A,,Clear,0,2012-10-04 12:55:00
8:15 AM,57.2,55.4,94,30.18,4.0,Calm,Calm,-,N/A,,Clear,0,2012-10-04 13:15:00
8:35 AM,60.8,59.0,94,30.18,7.0,Calm,Calm,-,N/A,,Clear,0,2012-10-04 13:35:00
8:55 AM,64.4,62.6,94,30.19,10.0,Calm,Calm,-,N/A,,Clear,0,2012-10-04 13:55:00
9:15 AM,64.4,60.8,88,30.19,10.0,Calm,Calm,-,N/A,,Clear,0,2012-10-04 14:15:00
9:35 AM,69.8,64.4,83,30.19,10.0,SSE,3.5,-,N/A,,Clear,150,2012-10-04 14:35:00
9:55 AM,69.8,62.6,78,30.20,10.0,SSE,3.5,-,N/A,,Clear,150,2012-10-04 14:55:00
10:15 AM,71.6,62.6,73,30.20,10.0,SE,5.8,-,N/A,,Clear,140,2012-10-04 15:15:00
10:35 AM,75.2,62.6,65,30.20,10.0,SSE,5.8,-,N/A,,Clear,150,2012-10-04 15:35:00
10:55 AM,75.2,60.8,61,30.21,10.0,SE,6.9,-,N/A,,Clear,140,2012-10-04 15:55:00
11:15 AM,75.2,60.8,61,30.21,10.0,SSE,9.2,-,N/A,,Clear,150,2012-10-04 16:15:00
11:35 AM,77.0,60.8,57,30.21,10.0,South,6.9,-,N/A,,Clear,180,2012-10-04 16:35:00
11:55 AM,77.0,59.0,54,30.20,10.0,SSE,8.1,-,N/A,,Clear,150,2012-10-04 16:55:00
12:15 PM,78.8,59.0,51,30.20,10.0,SSE,9.2,-,N/A,,Clear,150,2012-10-04 17:15:00
12:35 PM,78.8,57.2,47,30.19,10.0,East,6.9,-,N/A,,Clear,100,2012-10-04 17:35:00
12:55 PM,78.8,55.4,44,30.19,10.0,SSE,8.1,-,N/A,,Clear,150,2012-10-04 17:55:00
1:15 PM,82.4,59.0,45,30.19,10.0,SSE,5.8,-,N/A,,Clear,150,2012-10-04 18:15:00
1:35 PM,82.4,55.4,39,30.18,10.0,ESE,3.5,-,N/A,,Clear,110,2012-10-04 18:35:00
1:55 PM,82.4,57.2,42,30.17,10.0,ESE,4.6,-,N/A,,Clear,110,2012-10-04 18:55:00
2:15 PM,82.4,55.4,39,30.17,10.0,SSE,6.9,-,N/A,,Clear,150,2012-10-04 19:15:00
2:35 PM,84.2,60.8,45,30.16,10.0,ESE,6.9,-,N/A,,Clear,120,2012-10-04 19:35:00
2:55 PM,86.0,59.0,40,30.15,10.0,SSE,3.5,-,N/A,,Clear,160,2012-10-04 19:55:00
3:15 PM,86.0,60.8,43,30.14,10.0,ESE,4.6,-,N/A,,Clear,110,2012-10-04 20:15:00
3:35 PM,84.2,60.8,45,30.14,10.0,SE,3.5,-,N/A,,Clear,140,2012-10-04 20:35:00
3:55 PM,86.0,60.8,43,30.14,10.0,East,5.8,-,N/A,,Clear,80,2012-10-04 20:55:00
4:15 PM,86.0,62.6,45,30.13,10.0,East,6.9,-,N/A,,Clear,100,2012-10-04 21:15:00
4:35 PM,82.4,60.8,48,30.13,10.0,SE,8.1,-,N/A,,Clear,140,2012-10-04 21:35:00
4:55 PM,82.4,60.8,48,30.12,10.0,ESE,8.1,-,N/A,,Clear,120,2012-10-04 21:55:00
5:15 PM,80.6,60.8,51,30.11,10.0,ESE,5.8,-,N/A,,Clear,120,2012-10-04 22:15:00
5:35 PM,78.8,59.0,51,30.11,10.0,ESE,4.6,-,N/A,,Clear,120,2012-10-04 22:35:00
5:55 PM,78.8,57.2,47,30.11,10.0,SE,5.8,-,N/A,,Clear,130,2012-10-04 22:55:00
6:15 PM,77.0,55.4,47,30.12,10.0,ESE,3.5,-,0.01,,Clear,120,2012-10-04 23:15:00
6:35 PM,77.0,55.4,47,30.12,10.0,ESE,3.5,-,0.01,,Clear,120,2012-10-04 23:35:00
6:55 PM,75.2,59.0,57,30.12,10.0,ESE,3.5,-,0.01,,Clear,110,2012-10-04 23:55:00
7:15 PM,71.6,57.2,60,30.12,10.0,Calm,Calm,-,N/A,,Clear,0,2012-10-05 00:15:00
7:35 PM,69.8,60.8,73,30.12,10.0,Calm,Calm,-,N/A,,Clear,0,2012-10-05 00:35:00
7:55 PM,69.8,60.8,73,30.12,10.0,Calm,Calm,-,N/A,,Clear,0,2012-10-05 00:55:00
8:15 PM,69.8,62.6,78,30.13,10.0,Calm,Calm,-,N/A,,Clear,0,2012-10-05 01:15:00
8:35 PM,68.0,62.6,83,30.13,10.0,Calm,Calm,-,N/A,,Clear,0,2012-10-05 01:35:00
8:55 PM,68.0,60.8,78,30.14,10.0,Calm,Calm,-,N/A,,Clear,0,2012-10-05 01:55:00
9:15 PM,64.4,60.8,88,30.14,10.0,Calm,Calm,-,N/A,,Clear,0,2012-10-05 02:15:00
9:35 PM,64.4,60.8,88,30.14,10.0,Calm,Calm,-,N/A,,Clear,0,2012-10-05 02:35:00
9:55 PM,64.4,60.8,88,30.14,10.0,Calm,Calm,-,N/A,,Clear,0,2012-10-05 02:55:00
10:15 PM,64.4,60.8,88,30.15,10.0,Calm,Calm,-,N/A,,Clear,0,2012-10-05 03:15:00
10:35 PM,64.4,60.8,88,30.15,10.0,Calm,Calm,-,N/A,,Clear,0,2012-10-05 03:35:00
10:55 PM,64.4,62.6,94,30.15,10.0,Calm,Calm,-,N/A,,Clear,0,2012-10-05 03:55:00
11:15 PM,64.4,62.6,94,30.15,10.0,Calm,Calm,-,N/A,,Clear,0,2012-10-05 04:15:00
11:35 PM,64.4,62.6,94,30.15,10.0,Calm,Calm,-,N/A,,Clear,0,2012-10-05 04:35:00
11:55 PM,64.4,62.6,94,30.14,10.0,Calm,Calm,-,N/A,,Clear,0,2012-10-05 04:55:00